Location: Central Coast NSW, Australia
(33.2407°S, 151.4316°E)
Time: 08:33:33
(UTC+10:00)

Envisat - Pass Details

Date: 24 March 2019
Orbit: 764 x 766 km, 98.2° (Epoch: 23 April)

Event Time Altitude Azimuth Distance (km) Brightness Sun altitude
Rises 21:19:52 0° 185° (S) 3,266 6.6 -29.4°
Reaches altitude 10° 21:22:40 10° 200° (SSW) 2,331 5.9 -29.9°
Maximum altitude 21:26:28 21° 248° (WSW) 1,671 5.4 -30.7°
Drops below altitude 10° 21:30:15 10° 296° (WNW) 2,311 5.9 -31.4°
Sets 21:33:02 0° 311° (NW) 3,229 6.6 -31.9°
